WIA541 TNCM-TNCE

Flight info

Callsign WIA541
Flight time 0h 22m
Altitude 2000
Route VFR
Aircraft DHC6/L-SDGRY/S

Departure

Time 2026-05-04 18:38
Airport Princess Juliana International Airport (TNCM)

Arrival

Time 2026-05-04 19:01
Airport F. D. Roosevelt Airport (TNCE)
Time Latitude Longitude Altitude Speed Heading
2026-05-04 18:26 18.04177 -63.11239 43 ft 0 kts 171°
2026-05-04 18:27 18.04190 -63.11147 16 ft 0 kts 171°
2026-05-04 18:32 18.04187 -63.11146 16 ft 0 kts 171°
2026-05-04 18:35 18.04184 -63.11148 16 ft 2 kts 234°
2026-05-04 18:35 18.04227 -63.11150 16 ft 4 kts 33°
2026-05-04 18:35 18.04228 -63.11114 16 ft 5 kts 128°
2026-05-04 18:36 18.04189 -63.11102 16 ft 6 kts 169°
2026-05-04 18:36 18.04156 -63.11128 16 ft 9 kts 254°
2026-05-04 18:36 18.04127 -63.11162 16 ft 6 kts 170°
2026-05-04 18:36 18.04078 -63.11144 17 ft 8 kts 136°
2026-05-04 18:37 18.04064 -63.11096 17 ft 0 kts 83°
2026-05-04 18:37 18.04071 -63.11042 17 ft 38 kts 81°
2026-05-04 18:38 18.04159 -63.10518 223 ft 90 kts 82°
2026-05-04 18:38 18.04187 -63.09627 837 ft 105 kts 112°
2026-05-04 18:38 18.03566 -63.09124 1149 ft 126 kts 161°
2026-05-04 18:38 18.02969 -63.09178 1501 ft 130 kts 186°
2026-05-04 18:39 18.02182 -63.09448 1531 ft 107 kts 189°
2026-05-04 18:39 18.01502 -63.09642 1250 ft 105 kts 185°
2026-05-04 18:39 18.00782 -63.09821 1360 ft 110 kts 184°
2026-05-04 18:39 18.00046 -63.10010 1385 ft 116 kts 199°
2026-05-04 18:40 17.99587 -63.10758 1415 ft 126 kts 261°
2026-05-04 18:40 17.99554 -63.11648 1511 ft 124 kts 261°
2026-05-04 18:40 17.99456 -63.12559 1551 ft 128 kts 261°
2026-05-04 18:40 17.99370 -63.13518 1535 ft 136 kts 259°
2026-05-04 18:41 17.99228 -63.14506 1535 ft 136 kts 257°
2026-05-04 18:41 17.99044 -63.15494 1539 ft 137 kts 252°
2026-05-04 18:41 17.98835 -63.16462 1530 ft 140 kts 257°
2026-05-04 18:41 17.98682 -63.17461 1561 ft 133 kts 246°
2026-05-04 18:42 17.98072 -63.18099 1511 ft 124 kts 187°
2026-05-04 18:42 17.97246 -63.18206 1555 ft 117 kts 178°
2026-05-04 18:42 17.96407 -63.18288 1416 ft 127 kts 176°
2026-05-04 18:42 17.95529 -63.18334 1395 ft 123 kts 174°
2026-05-04 18:43 17.94727 -63.18313 1565 ft 111 kts 164°
2026-05-04 18:43 17.94003 -63.18022 1483 ft 121 kts 149°
2026-05-04 18:43 17.93283 -63.17548 1473 ft 116 kts 141°
2026-05-04 18:43 17.92656 -63.17052 1468 ft 114 kts 142°
2026-05-04 18:44 17.91955 -63.16640 1411 ft 116 kts 149°
2026-05-04 18:44 17.91473 -63.16390 1308 ft 121 kts 147°
2026-05-04 18:44 17.90473 -63.15801 1210 ft 116 kts 147°
2026-05-04 18:44 17.89801 -63.15384 1258 ft 113 kts 144°
2026-05-04 18:45 17.89168 -63.14914 1283 ft 111 kts 143°
2026-05-04 18:45 17.88540 -63.14458 1334 ft 107 kts 142°
2026-05-04 18:45 17.87928 -63.14007 1332 ft 109 kts 141°
2026-05-04 18:45 17.87346 -63.13509 1308 ft 110 kts 139°
2026-05-04 18:46 17.86743 -63.13011 1311 ft 108 kts 140°
2026-05-04 18:46 17.86159 -63.12551 1354 ft 107 kts 140°
2026-05-04 18:46 17.85532 -63.12089 1335 ft 110 kts 142°
2026-05-04 18:46 17.84882 -63.11689 1387 ft 108 kts 144°
2026-05-04 18:47 17.84244 -63.11268 1411 ft 109 kts 139°
2026-05-04 18:47 17.83622 -63.10803 1422 ft 112 kts 141°
2026-05-04 18:47 17.82974 -63.10345 1529 ft 112 kts 141°
2026-05-04 18:47 17.82285 -63.09914 1585 ft 115 kts 147°
2026-05-04 18:48 17.81579 -63.09504 1600 ft 119 kts 146°
2026-05-04 18:48 17.80858 -63.09062 1553 ft 124 kts 146°
2026-05-04 18:48 17.80089 -63.08614 1513 ft 128 kts 148°
2026-05-04 18:48 17.79302 -63.08175 1569 ft 123 kts 147°
2026-05-04 18:49 17.78572 -63.07749 1674 ft 121 kts 147°
2026-05-04 18:49 17.77823 -63.07300 1570 ft 129 kts 147°
2026-05-04 18:49 17.77040 -63.06880 1590 ft 127 kts 149°
2026-05-04 18:49 17.76247 -63.06456 1572 ft 129 kts 147°
2026-05-04 18:50 17.75476 -63.06023 1640 ft 125 kts 150°
2026-05-04 18:50 17.74693 -63.05648 1721 ft 117 kts 150°
2026-05-04 18:50 17.74038 -63.05220 1832 ft 117 kts 140°
2026-05-04 18:50 17.73365 -63.04688 1833 ft 124 kts 137°
2026-05-04 18:51 17.72681 -63.04119 1876 ft 119 kts 136°
2026-05-04 18:51 17.71972 -63.03672 1854 ft 124 kts 148°
2026-05-04 18:51 17.71210 -63.03247 1925 ft 122 kts 145°
2026-05-04 18:51 17.70480 -63.02810 1976 ft 123 kts 146°
2026-05-04 18:52 17.69710 -63.02380 1897 ft 129 kts 150°
2026-05-04 18:52 17.68888 -63.02026 1939 ft 128 kts 153°
2026-05-04 18:52 17.68027 -63.01712 1948 ft 130 kts 158°
2026-05-04 18:52 17.67164 -63.01467 1932 ft 132 kts 159°
2026-05-04 18:53 17.66261 -63.01208 1834 ft 137 kts 161°
2026-05-04 18:53 17.65308 -63.00971 1683 ft 141 kts 163°
2026-05-04 18:53 17.64396 -63.00752 1751 ft 128 kts 160°
2026-05-04 18:53 17.63531 -63.00517 1724 ft 130 kts 160°
2026-05-04 18:54 17.62658 -63.00302 1725 ft 126 kts 161°
2026-05-04 18:54 17.61806 -63.00102 1764 ft 123 kts 161°
2026-05-04 18:54 17.61008 -62.99863 1874 ft 121 kts 161°
2026-05-04 18:54 17.60187 -62.99635 1929 ft 124 kts 160°
2026-05-04 18:55 17.59339 -62.99423 1985 ft 122 kts 161°
2026-05-04 18:55 17.57776 -62.98971 2001 ft 109 kts 160°
2026-05-04 18:55 17.57039 -62.98750 1955 ft 111 kts 156°
2026-05-04 18:56 17.56287 -62.98589 1873 ft 111 kts 174°
2026-05-04 18:56 17.55537 -62.98597 1707 ft 97 kts 171°
2026-05-04 18:56 17.54945 -62.98562 1560 ft 81 kts 166°
2026-05-04 18:56 17.54391 -62.98519 1419 ft 79 kts 172°
2026-05-04 18:57 17.53782 -62.98558 1337 ft 103 kts 179°
2026-05-04 18:57 17.53034 -62.98802 1444 ft 124 kts 199°
2026-05-04 18:57 17.52318 -62.99416 1577 ft 140 kts 225°
2026-05-04 18:57 17.51720 -63.00176 1790 ft 133 kts 222°
2026-05-04 18:58 17.51066 -63.00873 1820 ft 127 kts 217°
2026-05-04 18:58 17.50407 -63.01468 1669 ft 132 kts 210°
2026-05-04 18:58 17.49646 -63.02049 1448 ft 136 kts 207°
2026-05-04 18:58 17.48855 -63.02554 1355 ft 128 kts 202°
2026-05-04 18:59 17.48062 -63.02757 1360 ft 114 kts 162°
2026-05-04 18:59 17.47578 -63.02196 1330 ft 107 kts 98°
2026-05-04 18:59 17.47633 -63.01473 1074 ft 97 kts 79°
2026-05-04 18:59 17.47895 -63.00704 938 ft 122 kts 72°
2026-05-04 19:00 17.48255 -62.99891 795 ft 115 kts 68°
2026-05-04 19:00 17.48611 -62.99319 573 ft 80 kts 64°
2026-05-04 19:00 17.48924 -62.98878 366 ft 74 kts 57°
2026-05-04 19:00 17.49247 -62.98463 180 ft 72 kts 59°
2026-05-04 19:01 17.49509 -62.98131 120 ft 37 kts 52°
2026-05-04 19:01 17.49548 -62.98041 118 ft 9 kts 154°
2026-05-04 19:01 17.49504 -62.98023 119 ft 5 kts 164°
2026-05-04 19:01 17.49459 -62.98007 119 ft 7 kts 168°
2026-05-04 19:02 17.49422 -62.98024 119 ft 12 kts 238°
2026-05-04 19:02 17.49388 -62.98089 123 ft 3 kts 227°
2026-05-04 19:02 17.49388 -62.98108 122 ft 4 kts 319°
2026-05-04 19:02 17.49391 -62.98111 122 ft 0 kts 315°
2026-05-04 19:03 17.49392 -62.98113 122 ft 0 kts 314°